Location: Pompeys Pillar
(45.9913°N, 107.9528°W)
Time: 04:02:50
(UTC+00:00)

Tiros 1 - Pass Details

Date: 31 May 2022
Orbit: 629 x 663 km, 48.4° (Epoch: 30 June)

Event Time Altitude Azimuth Distance (km) Brightness Sun altitude
Rises 04:22:24 0° 183° (S) 2,900 - -12.3°
Reaches altitude 10° 04:26:33 10° 146° (SSE) 1,998 - -12.7°
Maximum altitude 04:27:41 11° 132° (SE) 1,945 - -12.8°
Drops below altitude 10° 04:28:49 10° 118° (ESE) 2,002 - -13.0°
Exits shadow 04:32:35 - 84° (E) 2,797 10.1 -13.4°
Sets 04:33:00 0° 81° (E) 2,919 10.2 -13.4°
